Back to catalog

SEAHAWK-1

AliveScienceSSO
NORAD 43820·PAYLOAD·🇺🇸 United States

Launched Dec 3, 2018 from Vandenberg Space Force Base

Loading…

Next Passes (next 24 hours)

TLE

FreshSource: Space-Track

Epoch: Sep 14, 2026, 09:32 UTC

1 43820U 18099BQ  26257.39782821  .00006137  00000-0  25544-3 0  9996
2 43820  97.3861 308.5610 0007868   7.9318 352.2042 15.24084647426116

Track SEAHAWK-1 in real time with AllMySat

Download on the App Store